Location: Newark
(30.1000°N, 109.4667°E)
Time: 09:14:01
(UTC+00:00)

deb Explorer IX - All Passes

Search period start: 17 February 2020 00:00
Search period end: 27 February 2020 00:00
Orbit: 549 x 1099 km, 38.8° (Epoch: 17 February)

Date Brightness Start Highest point End Pass type
(mag) Time Alt. Az. Time Alt. Az. Time Alt. Az.
17 Feb - 04:05:54 10° SW 04:09:59 59° SSE 04:14:03 10° ENE daylight
17 Feb - 05:53:07 10° W 05:56:54 35° NNW 06:00:53 10° NE daylight
17 Feb - 07:40:49 10° NW 07:44:29 27° N 07:48:29 10° ENE daylight
17 Feb - 09:27:26 10° NW 09:31:57 51° NNE 09:37:11 10° E daylight
17 Feb - 11:14:08 10° WNW 11:18:58 45° SSW 11:24:36 10° SE visible
18 Feb - 03:43:35 10° SW 03:47:45 61° SSE 03:51:48 10° ENE daylight
18 Feb - 05:30:54 10° W 05:34:40 34° NNW 05:38:33 10° NE daylight
18 Feb - 07:18:39 10° NW 07:22:13 26° N 07:26:05 10° ENE daylight
18 Feb - 09:05:16 10° NW 09:09:39 51° NNE 09:14:43 10° E daylight
18 Feb - 10:51:57 10° WNW 10:56:37 43° SSW 11:02:02 10° SE visible
19 Feb - 01:38:24 10° SSE 01:39:04 10° SE 01:39:43 10° SE daylight
19 Feb - 03:21:15 10° SW 03:25:30 63° SSE 03:29:33 10° ENE daylight
19 Feb - 05:08:40 10° W 05:12:26 34° NNW 05:16:15 10° NE daylight
19 Feb - 06:56:28 10° NW 06:59:59 25° N 07:03:43 10° ENE daylight
19 Feb - 08:43:04 10° NW 08:47:22 51° NNE 08:52:16 10° E daylight
19 Feb - 10:29:47 10° WNW 10:34:16 41° SSW 10:39:30 10° SE daylight
20 Feb - 01:15:25 10° SSE 01:16:46 11° SE 01:18:05 10° SE daylight
20 Feb - 02:58:54 10° SW 03:03:16 65° SSE 03:07:20 10° ENE daylight
20 Feb - 04:46:25 10° W 04:50:11 33° NNW 04:53:58 10° NE daylight
20 Feb - 06:34:15 10° NW 06:37:43 25° N 06:41:21 10° ENE daylight
20 Feb - 08:20:53 10° NW 08:25:05 51° NNE 08:29:50 10° E daylight
20 Feb - 10:07:37 10° WNW 10:11:58 39° SSW 10:16:57 10° SE daylight
21 Feb - 00:52:37 10° SSE 00:54:28 12° SE 00:56:14 10° ESE daylight
21 Feb - 02:36:31 10° SW 02:41:01 67° SSE 02:45:07 10° ENE daylight
21 Feb - 04:24:08 10° W 04:27:58 33° NNW 04:31:42 10° NE daylight
21 Feb - 06:12:03 10° NW 06:15:28 25° N 06:19:02 10° ENE daylight
21 Feb - 07:58:41 10° NW 08:02:50 51° NNE 08:07:25 10° E daylight
21 Feb - 09:45:27 10° W 09:49:39 37° SSW 09:54:26 10° SSE daylight
22 Feb - 00:29:53 10° S 00:32:09 13° SE 00:34:19 10° ESE daylight
22 Feb - 02:14:07 10° SW 02:18:45 69° SSE 02:22:55 10° ENE daylight
22 Feb - 04:01:51 10° W 04:05:43 33° NNW 04:09:27 10° NE daylight
22 Feb - 05:49:49 10° NW 05:53:14 24° N 05:56:43 10° ENE daylight
22 Feb - 07:36:29 10° NW 07:40:35 52° NNE 07:45:03 10° E daylight
22 Feb - 09:23:17 10° W 09:27:21 35° SSW 09:31:55 10° SSE daylight
23 Feb - 00:07:12 10° S 00:09:51 14° SE 00:12:20 10° ESE daylight
23 Feb - 01:51:42 10° SW 01:56:29 72° SSE 02:00:44 10° ENE daylight
23 Feb - 03:39:31 10° W 03:43:28 33° NNW 03:47:13 10° NE daylight
23 Feb - 05:27:34 10° NW 05:30:59 24° N 05:34:26 10° ENE daylight
23 Feb - 07:14:16 10° NW 07:18:19 52° NNE 07:22:40 10° E daylight
23 Feb - 09:01:08 10° W 09:05:04 34° SSW 09:09:26 10° SSE daylight
23 Feb - 23:44:30 10° S 23:47:31 15° SE 23:50:19 10° ESE daylight
24 Feb - 01:29:15 10° SW 01:34:12 74° SSE 01:38:32 10° ENE daylight
24 Feb - 03:17:10 10° W 03:21:13 33° NNW 03:25:00 10° NE daylight
24 Feb - 05:05:18 10° NW 05:08:45 25° N 05:12:10 10° ENE daylight
24 Feb - 06:52:03 10° NW 06:56:04 53° NNE 07:00:19 10° E daylight
24 Feb - 08:38:58 10° W 08:42:47 32° SSW 08:46:58 10° SSE daylight
24 Feb - 23:21:50 10° S 23:25:11 16° SE 23:28:16 10° ESE daylight
25 Feb - 01:06:48 10° SW 01:11:55 76° SSE 01:16:21 10° ENE daylight
25 Feb - 02:54:48 10° W 02:58:58 33° NNW 03:02:47 10° NE daylight
25 Feb - 04:43:00 10° NW 04:46:30 25° N 04:49:56 10° ENE daylight
25 Feb - 06:29:48 10° NW 06:33:49 53° NNE 06:38:00 10° E daylight
25 Feb - 08:16:48 10° W 08:20:30 30° SW 08:24:31 10° SSE daylight
25 Feb - 22:59:09 10° S 23:02:50 18° SE 23:06:13 10° ESE daylight
26 Feb - 00:44:19 10° WSW 00:49:37 78° SSE 00:54:10 10° ENE daylight
26 Feb - 02:32:25 10° W 02:36:42 33° NNW 02:40:35 10° NE daylight
26 Feb - 04:20:41 10° NW 04:24:16 25° N 04:27:42 10° ENE daylight
26 Feb - 06:07:33 10° WNW 06:11:35 54° NNE 06:15:42 10° E daylight
26 Feb - 07:54:37 10° W 07:58:14 29° SW 08:02:05 10° SSE daylight
26 Feb - 22:36:28 10° S 22:40:29 19° SE 22:44:07 10° E visible
